Date,TemperatureHighF,TemperatureAvgF,TemperatureLowF,DewpointHighF,DewpointAvgF,DewpointLowF,HumidityHigh,HumidityAvg,HumidityLow,PressureMaxIn,PressureMinIn,WindSpeedMaxMPH,WindSpeedAvgMPH,GustSpeedMaxMPH,PrecipitationSumIn
2013-1-1,26,15,7,15,5,-5,95,67,28,0.00,40.00,12,4,18,0.00
2013-1-2,19,14,10,6,-3,-14,72,48,24,0.00,40.00,14,8,23,0.00
2013-1-3,46,27,11,1,-13,-26,36,18,5,0.00,40.00,4,3,10,0.00
2013-1-4,43,31,18,5,-7,-21,44,22,9,0.00,40.00,5,3,8,0.00
2013-1-5,31,20,11,13,-1,-31,61,43,7,0.00,40.00,5,3,8,0.00
2013-1-6,43,33,27,11,-6,-25,45,20,7,0.00,40.00,11,4,19,0.00
2013-1-7,35,27,18,15,7,3,59,43,27,0.00,40.00,11,6,20,0.00
2013-1-8,30,25,21,13,10,6,67,52,43,0.00,40.00,12,7,22,0.00
2013-1-9,47,38,29,15,6,-8,55,29,13,0.00,40.00,22,11,29,0.00
2013-1-10,42,35,23,20,8,-9,89,38,11,0.00,40.00,20,12,31,0.00
2013-1-11,23,4,-6,21,2,-10,94,87,76,0.00,40.00,7,2,15,0.00
2013-1-12,5,-3,-8,-1,-7,-12,90,82,72,0.00,40.00,4,2,6,0.00
2013-1-13,1,-6,-13,-5,-11,-17,86,80,71,0.00,40.00,4,2,6,0.00
2013-1-14,12,0,-9,-8,-13,-17,76,56,30,0.00,40.00,7,3,10,0.00
2013-1-15,32,24,5,28,16,-5,99,72,59,0.00,40.00,12,7,22,0.00
2013-1-16,38,29,18,17,12,6,66,50,30,0.00,40.00,11,5,19,0.00
2013-1-17,43,29,18,13,6,-1,68,42,21,0.00,40.00,14,6,19,0.00
2013-1-18,43,36,32,4,0,-6,29,21,16,0.00,40.00,14,9,21,0.00
2013-1-19,36,30,25,13,1,-10,49,29,15,0.00,40.00,20,8,28,0.00
2013-1-20,30,23,11,20,8,-5,100,59,21,0.00,40.00,13,7,23,0.00
2013-1-21,40,32,28,12,5,-8,48,32,21,0.00,40.00,20,11,30,0.00
2013-1-22,40,33,25,6,-6,-15,31,19,9,0.00,40.00,14,5,20,0.00
2013-1-23,47,41,37,-6,-10,-12,15,11,8,0.00,40.00,12,6,20,0.00
2013-1-24,42,35,24,19,8,-10,78,36,11,0.00,40.00,12,5,21,0.00
2013-1-25,41,33,27,14,6,-4,48,31,20,0.00,40.00,13,4,21,0.00
2013-1-26,42,35,30,20,16,7,63,47,33,0.00,40.00,11,5,20,0.00
2013-1-27,37,27,16,24,18,14,100,73,43,0.00,40.00,6,4,10,0.00
2013-1-28,17,13,5,16,11,1,95,92,75,0.00,40.00,6,2,9,0.00
2013-1-29,20,9,2,7,-3,-14,81,59,41,0.00,40.00,10,6,15,0.00
2013-1-30,23,14,5,16,6,-14,97,69,39,0.00,40.00,13,7,22,0.00
2013-1-31,28,20,7,19,12,-2,93,71,51,0.00,40.00,14,6,28,0.00